Content
SEND FEEDBACK

Daily
Averages
Monthly
Summary
Canada

STE. DOROTHEE, QUEBEC


Home > North America > Canada > Quebec
Elevation: 75 feet     Latitude: 45 31N     Longitude: 73 47W

WEATHER
 
SELECT A DAY
Number of Records: 197,913;   Date Range: 1/1/95 - 7/11/14
 
SHARE

PRINT THIS DATA

[ ← Previous Day ]
WEATHER ALMANAC - JULY 3, 2013
[ Next Day → ]
[ °C ]   °F
Weather ElementAverageHighLow
Temperature70.6 °F78.8 °F (5:00 pm)62.6 °F (3:00 am)
Dewpoint63.6 °F69.8 °F (5:00 pm)58 °F (2:00 am)
Humidity78 %88 % (3:00 am)63 % (2:00 pm)
Barometer30.13 in30.16 in (8:00 am)30.10 in (3:00 am)
Wind Speed5.9 mph11.5 mph (6:00 pm)
Weather ElementAverage
Visibility9.4 mi
Wind DirectionSE (139.7 °)

Weather ElementTotal
Precipitation---
Cooling Degree Days5.7 (Base 65)
Growing Degree Days20.7 (Base 50)
Averaged from 29 records on July 3, 2013
WEATHER CONDITIONS BREAKOUT
WIND DIRECTION BREAKOUT
WEATHER BY HOUR - JULY 3, 2013
[ °C ]   °F
Local TimeTemperatureDewpointHumidityBarometerVisibilityWind DirectionWind SpeedGust SpeedPrecipitationEventsConditions
1:00 AM64.4 °F59.0 °F83 %30.11 in7.0 miNNE (20°)5.8 mphOvercast
2:00 AM64.0 °F58.0 °F76 %30.11 in7.0 miNorth (10°)5.8 mphPartly Cloudy
2:00 AM64.4 °F59.0 °F83 %30.11 in8.0 miNorth (360°)8.1 mphOvercast
3:00 AM62.6 °F59.0 °F88 %30.10 in8.0 miNNE (30°)5.8 mphOvercast
4:00 AM62.6 °F59.0 °F88 %30.11 in10.0 miNNE (20°)8.1 mphOvercast
5:00 AM62.6 °F59.0 °F88 %30.12 in10.0 miNNE (20°)5.8 mphOvercast
6:00 AM64.4 °F59.0 °F83 %30.13 in8.0 miNNE (20°)6.9 mphOvercast
6:40 AM64.4 °F59.0 °F83 %30.14 in10.0 miNNE (30°)5.8 mphOvercast
7:00 AM64.4 °F59.0 °F83 %30.14 in10.0 miNNE (30°)3.5 mphOvercast
7:36 AM66.2 °F60.8 °F83 %30.15 in10.0 miNNE (20°)3.5 mphMostly Cloudy
8:00 AM66.0 °F60.0 °F74 %30.16 in10.0 miNNE (20°)3.5 mphMostly Cloudy
8:00 AM66.2 °F59.0 °F78 %30.15 in10.0 miNNE (20°)3.5 mphMostly Cloudy
9:00 AM68.0 °F60.8 °F78 %30.15 in10.0 miCalmOvercast
10:00 AM69.8 °F60.8 °F73 %30.15 in8.0 miWSW (240°)3.5 mphOvercast
11:00 AM69.8 °F62.6 °F78 %30.16 in8.0 miSW (230°)5.8 mphOvercast
12:00 PM71.6 °F64.4 °F78 %30.16 in8.0 miSSW (210°)4.6 mphOvercast
1:00 PM75.2 °F66.2 °F73 %30.16 in8.0 miSSW (210°)4.6 mphOvercast
2:00 PM77.0 °F67.0 °F63 %30.14 in7.0 miSouth (190°)5.8 mphOvercast
2:00 PM77.0 °F66.2 °F69 %30.14 in8.0 miSouth (180°)5.8 mphOvercast
3:00 PM77.0 °F68.0 °F74 %30.13 in10.0 miSSW (210°)10.4 mphMostly Cloudy
4:00 PM77.0 °F68.0 °F74 %30.12 in10.0 miSSW (200°)10.4 mphMostly Cloudy
5:00 PM78.8 °F69.8 °F74 %30.11 in10.0 miSSW (210°)9.2 mphMostly Cloudy
6:00 PM78.8 °F69.8 °F74 %30.10 in10.0 miSSW (200°)11.5 mphMostly Cloudy
7:00 PM78.8 °F69.8 °F74 %30.11 in10.0 miSSW (210°)8.1 mphScattered Clouds
8:00 PM76.0 °F69.0 °F73 %30.11 in10.0 miSW (220°)8.1 mphClear
8:00 PM77.0 °F68.0 °F74 %30.11 in10.0 miSW (220°)8.1 mphPartly Cloudy
9:00 PM75.2 °F68.0 °F78 %30.11 in10.0 miWSW (240°)4.6 mphScattered Clouds
10:00 PM73.4 °F68.0 °F83 %30.13 in15.0 miWSW (240°)3.5 mphClear
11:00 PM73.4 °F68.0 °F83 %30.13 in12.0 miWSW (240°)2.3 mphPartly Cloudy
Hourly data recorded from CYUL, located miles away from Ste. Dorothee, Quebec







STORIES FROM OUR PARTNERS